Time,TemperatureF,DewpointF,PressureIn,WindDirection,WindDirectionDegrees,WindSpeedMPH,WindSpeedGustMPH,Humidity,HourlyPrecipIn,Conditions,Clouds,dailyrainin,SoftwareType,DateUTC
2013-07-01 00:01:00,65.0,58.0,30.09,East,90,0.0,0.0,79,0.00,,,0.00,,2013-07-01 05:01:00,
2013-07-01 00:11:00,64.0,58.0,30.09,East,90,0.0,0.0,80,0.00,,,0.00,,2013-07-01 05:11:00,
2013-07-01 00:22:00,64.0,58.0,30.09,East,90,0.0,0.0,81,0.00,,,0.00,,2013-07-01 05:22:00,
2013-07-01 00:33:00,64.0,58.0,30.10,East,90,0.0,0.0,82,0.00,,,0.00,,2013-07-01 05:33:00,
2013-07-01 00:42:00,63.0,57.0,30.10,East,90,0.0,0.0,82,0.00,,,0.00,,2013-07-01 05:42:00,
2013-07-01 00:52:00,63.0,58.0,30.10,East,90,0.0,0.0,83,0.00,,,0.00,,2013-07-01 05:52:00,
2013-07-01 01:02:00,63.0,58.0,30.10,East,90,0.0,0.0,84,0.00,,,0.00,,2013-07-01 06:02:00,
2013-07-01 01:12:00,62.0,57.0,30.10,East,90,0.0,0.0,84,0.00,,,0.00,,2013-07-01 06:12:00,
2013-07-01 01:24:00,63.0,58.0,30.10,East,90,0.0,0.0,84,0.00,,,0.00,,2013-07-01 06:24:00,
2013-07-01 01:33:00,62.0,57.0,30.11,East,90,0.0,0.0,85,0.00,,,0.00,,2013-07-01 06:33:00,
2013-07-01 01:43:00,62.0,57.0,30.11,East,90,0.0,0.0,85,0.00,,,0.00,,2013-07-01 06:43:00,
2013-07-01 01:53:00,62.0,58.0,30.11,East,90,0.0,0.0,86,0.00,,,0.00,,2013-07-01 06:53:00,
2013-07-01 02:01:00,61.0,57.0,30.11,East,90,0.0,0.0,87,0.00,,,0.00,,2013-07-01 07:01:00,
2013-07-01 02:11:00,61.0,57.0,30.11,East,90,0.0,0.0,88,0.00,,,0.00,,2013-07-01 07:11:00,
2013-07-01 02:22:00,60.0,56.0,30.11,East,90,0.0,0.0,88,0.00,,,0.00,,2013-07-01 07:22:00,
2013-07-01 02:33:00,60.0,57.0,30.11,East,90,0.0,0.0,89,0.00,,,0.00,,2013-07-01 07:33:00,
2013-07-01 02:43:00,60.0,57.0,30.11,East,90,0.0,0.0,90,0.00,,,0.00,,2013-07-01 07:43:00,
2013-07-01 02:53:00,59.0,56.0,30.11,East,90,0.0,0.0,90,0.00,,,0.00,,2013-07-01 07:53:00,
2013-07-01 03:01:00,59.0,56.0,30.11,East,90,0.0,0.0,90,0.00,,,0.00,,2013-07-01 08:01:00,
2013-07-01 03:11:00,59.0,56.0,30.11,East,90,0.0,0.0,91,0.00,,,0.00,,2013-07-01 08:11:00,
2013-07-01 03:22:00,59.0,57.0,30.11,East,90,0.0,0.0,92,0.00,,,0.00,,2013-07-01 08:22:00,
2013-07-01 03:33:00,59.0,57.0,30.11,East,90,0.0,0.0,92,0.00,,,0.00,,2013-07-01 08:33:00,
2013-07-01 03:42:00,59.0,57.0,30.11,East,90,0.0,0.0,92,0.00,,,0.00,,2013-07-01 08:42:00,
2013-07-01 03:52:00,59.0,57.0,30.11,East,90,0.0,0.0,92,0.00,,,0.00,,2013-07-01 08:52:00,
2013-07-01 04:02:00,59.0,57.0,30.11,East,90,0.0,0.0,92,0.00,,,0.00,,2013-07-01 09:02:00,
2013-07-01 04:11:00,59.0,57.0,30.12,East,90,0.0,0.0,93,0.00,,,0.00,,2013-07-01 09:11:00,
2013-07-01 04:22:00,58.0,56.0,30.12,East,90,0.0,0.0,93,0.00,,,0.00,,2013-07-01 09:22:00,
2013-07-01 04:34:00,59.0,57.0,30.12,East,90,0.0,0.0,94,0.00,,,0.00,,2013-07-01 09:34:00,
2013-07-01 04:43:00,58.0,56.0,30.12,East,90,0.0,0.0,94,0.00,,,0.00,,2013-07-01 09:43:00,
2013-07-01 04:53:00,59.0,57.0,30.12,East,90,0.0,0.0,94,0.00,,,0.00,,2013-07-01 09:53:00,
2013-07-01 05:03:00,58.0,57.0,30.12,East,90,0.0,0.0,95,0.00,,,0.00,,2013-07-01 10:03:00,
2013-07-01 05:11:00,58.0,57.0,30.12,East,90,0.0,0.0,95,0.00,,,0.00,,2013-07-01 10:11:00,
2013-07-01 05:22:00,58.0,57.0,30.12,East,90,0.0,0.0,95,0.00,,,0.00,,2013-07-01 10:22:00,
2013-07-01 05:33:00,58.0,57.0,30.13,East,90,0.0,0.0,96,0.00,,,0.00,,2013-07-01 10:33:00,
2013-07-01 05:42:00,58.0,57.0,30.13,East,90,0.0,0.0,96,0.00,,,0.00,,2013-07-01 10:42:00,
2013-07-01 05:52:00,58.0,57.0,30.14,East,90,0.0,0.0,96,0.00,,,0.00,,2013-07-01 10:52:00,
2013-07-01 06:02:00,58.0,57.0,30.14,East,90,0.0,0.0,96,0.00,,,0.00,,2013-07-01 11:02:00,
2013-07-01 06:11:00,58.0,57.0,30.14,East,90,0.0,0.0,96,0.00,,,0.00,,2013-07-01 11:11:00,
2013-07-01 06:22:00,58.0,57.0,30.14,East,90,0.0,0.0,96,0.00,,,0.00,,2013-07-01 11:22:00,
2013-07-01 06:33:00,58.0,57.0,30.15,East,90,0.0,0.0,97,0.00,,,0.00,,2013-07-01 11:33:00,
2013-07-01 06:43:00,58.0,57.0,30.15,East,90,0.0,0.0,97,0.00,,,0.00,,2013-07-01 11:43:00,
2013-07-01 06:52:00,58.0,57.0,30.15,East,90,0.0,0.0,97,0.00,,,0.00,,2013-07-01 11:52:00,
2013-07-01 07:01:00,59.0,58.0,30.15,East,90,0.0,0.0,97,0.00,,,0.00,,2013-07-01 12:01:00,
2013-07-01 07:11:00,59.0,58.0,30.15,East,90,0.0,0.0,97,0.00,,,0.00,,2013-07-01 12:11:00,
2013-07-01 07:22:00,59.0,58.0,30.16,East,90,0.0,0.0,98,0.00,,,0.00,,2013-07-01 12:22:00,
2013-07-01 07:33:00,59.0,58.0,30.16,East,90,0.0,0.0,97,0.00,,,0.00,,2013-07-01 12:33:00,
2013-07-01 07:43:00,60.0,59.0,30.16,East,90,0.0,0.0,97,0.00,,,0.00,,2013-07-01 12:43:00,
2013-07-01 07:53:00,62.0,61.0,30.16,East,90,0.0,0.0,95,0.00,,,0.00,,2013-07-01 12:53:00,
2013-07-01 08:02:00,64.0,60.0,30.16,East,90,0.0,0.0,86,0.00,,,0.00,,2013-07-01 13:02:00,
2013-07-01 08:12:00,66.0,61.0,30.16,East,90,0.0,0.0,83,0.00,,,0.00,,2013-07-01 13:12:00,
2013-07-01 08:23:00,66.0,61.0,30.16,East,90,0.0,0.0,84,0.00,,,0.00,,2013-07-01 13:23:00,
2013-07-01 08:33:00,68.0,62.0,30.16,East,90,0.0,0.0,81,0.00,,,0.00,,2013-07-01 13:33:00,
2013-07-01 08:43:00,68.0,62.0,30.16,East,90,0.0,0.0,81,0.00,,,0.00,,2013-07-01 13:43:00,
2013-07-01 08:53:00,69.0,61.0,30.16,East,90,0.0,0.0,76,0.00,,,0.00,,2013-07-01 13:53:00,
2013-07-01 09:01:00,69.0,61.0,30.16,East,90,0.0,0.0,76,0.00,,,0.00,,2013-07-01 14:01:00,
2013-07-01 09:11:00,70.0,62.0,30.16,East,90,0.0,0.0,76,0.00,,,0.00,,2013-07-01 14:11:00,
2013-07-01 09:22:00,70.0,61.0,30.16,East,90,0.0,0.0,72,0.00,,,0.00,,2013-07-01 14:22:00,
2013-07-01 09:34:00,71.0,61.0,30.16,East,90,0.0,0.0,71,0.00,,,0.00,,2013-07-01 14:34:00,
2013-07-01 09:43:00,72.0,61.0,30.16,East,95,0.0,4.0,68,0.00,,,0.00,,2013-07-01 14:43:00,
2013-07-01 09:52:00,72.0,61.0,30.16,East,95,0.0,4.0,68,0.00,,,0.00,,2013-07-01 14:52:00,
2013-07-01 10:02:00,72.0,61.0,30.16,East,95,0.0,4.0,68,0.00,,,0.00,,2013-07-01 15:02:00,
2013-07-01 10:11:00,75.0,62.0,30.16,East,95,0.0,0.0,63,0.00,,,0.00,,2013-07-01 15:11:00,
2013-07-01 10:23:00,75.0,62.0,30.16,East,95,0.0,0.0,63,0.00,,,0.00,,2013-07-01 15:23:00,
2013-07-01 10:34:00,75.0,59.0,30.16,East,95,0.0,0.0,57,0.00,,,0.00,,2013-07-01 15:34:00,
2013-07-01 10:43:00,76.0,60.0,30.15,East,95,0.0,2.0,57,0.00,,,0.00,,2013-07-01 15:43:00,
2013-07-01 10:52:00,76.0,60.0,30.15,East,95,0.0,2.0,57,0.00,,,0.00,,2013-07-01 15:52:00,
2013-07-01 11:01:00,76.0,59.0,30.15,ENE,77,0.0,0.0,56,0.00,,,0.00,,2013-07-01 16:01:00,
2013-07-01 11:11:00,76.0,59.0,30.15,ENE,77,0.0,0.0,56,0.00,,,0.00,,2013-07-01 16:11:00,
2013-07-01 11:22:00,76.0,58.0,30.16,ENE,70,0.0,5.0,54,0.00,,,0.00,,2013-07-01 16:22:00,
2013-07-01 11:33:00,76.0,58.0,30.15,East,88,0.0,4.0,53,0.00,,,0.00,,2013-07-01 16:33:00,
2013-07-01 11:44:00,78.0,58.0,30.15,NNE,28,0.0,3.0,51,0.00,,,0.00,,2013-07-01 16:44:00,
2013-07-01 11:53:00,79.0,59.0,30.15,NNE,28,0.0,0.0,51,0.00,,,0.00,,2013-07-01 16:53:00,
2013-07-01 12:02:00,79.0,57.0,30.15,NE,53,0.0,3.0,47,0.00,,,0.00,,2013-07-01 17:02:00,
2013-07-01 12:12:00,79.0,59.0,30.15,NNE,28,0.0,4.0,50,0.00,,,0.00,,2013-07-01 17:12:00,
2013-07-01 12:23:00,79.0,58.0,30.15,WSW,247,2.0,6.0,48,0.00,,,0.00,,2013-07-01 17:23:00,
2013-07-01 12:34:00,79.0,58.0,30.15,WSW,247,2.0,6.0,48,0.00,,,0.00,,2013-07-01 17:34:00,
2013-07-01 12:43:00,79.0,58.0,30.15,WSW,247,2.0,6.0,48,0.00,,,0.00,,2013-07-01 17:43:00,
2013-07-01 12:53:00,79.0,59.0,30.14,NNE,26,0.0,0.0,51,0.00,,,0.00,,2013-07-01 17:53:00,
2013-07-01 13:02:00,79.0,58.0,30.14,North,11,0.0,7.0,49,0.00,,,0.00,,2013-07-01 18:02:00,
2013-07-01 13:11:00,80.0,58.0,30.14,North,358,0.0,7.0,47,0.00,,,0.00,,2013-07-01 18:11:00,
2013-07-01 13:22:00,80.0,60.0,30.14,NE,39,0.0,7.0,50,0.00,,,0.00,,2013-07-01 18:22:00,
2013-07-01 13:33:00,80.0,60.0,30.14,NE,39,0.0,7.0,50,0.00,,,0.00,,2013-07-01 18:33:00,
2013-07-01 13:43:00,80.0,59.0,30.13,North,354,0.0,6.0,48,0.00,,,0.00,,2013-07-01 18:43:00,
2013-07-01 13:53:00,80.0,59.0,30.13,North,0,6.0,6.0,48,0.00,,,0.00,,2013-07-01 18:53:00,
2013-07-01 14:02:00,80.0,59.0,30.13,North,358,4.0,6.0,48,0.00,,,0.00,,2013-07-01 19:02:00,
2013-07-01 14:11:00,79.0,59.0,30.13,ENE,63,2.0,5.0,50,0.00,,,0.00,,2013-07-01 19:11:00,
2013-07-01 14:22:00,79.0,59.0,30.13,ENE,59,0.0,0.0,51,0.00,,,0.00,,2013-07-01 19:22:00,
2013-07-01 14:33:00,79.0,60.0,30.13,NE,37,0.0,5.0,52,0.00,,,0.00,,2013-07-01 19:33:00,
2013-07-01 14:44:00,79.0,58.0,30.13,North,0,0.0,4.0,49,0.00,,,0.00,,2013-07-01 19:44:00,
2013-07-01 14:52:00,79.0,59.0,30.13,North,8,0.0,8.0,50,0.00,,,0.00,,2013-07-01 19:52:00,
2013-07-01 15:02:00,80.0,59.0,30.13,ENE,71,4.0,5.0,49,0.00,,,0.00,,2013-07-01 20:02:00,
2013-07-01 15:11:00,79.0,59.0,30.12,South,172,4.0,5.0,51,0.00,,,0.00,,2013-07-01 20:11:00,
2013-07-01 15:22:00,79.0,58.0,30.12,NE,39,0.0,3.0,49,0.00,,,0.00,,2013-07-01 20:22:00,
2013-07-01 15:34:00,79.0,60.0,30.12,ENE,59,3.0,9.0,53,0.00,,,0.00,,2013-07-01 20:34:00,
2013-07-01 15:43:00,80.0,59.0,30.12,NE,50,4.0,8.0,48,0.00,,,0.00,,2013-07-01 20:43:00,
2013-07-01 15:52:00,80.0,61.0,30.12,NNE,16,0.0,8.0,52,0.00,,,0.00,,2013-07-01 20:52:00,
2013-07-01 16:01:00,81.0,61.0,30.12,NE,40,0.0,4.0,51,0.00,,,0.00,,2013-07-01 21:01:00,
2013-07-01 16:11:00,80.0,59.0,30.12,East,84,5.0,10.0,49,0.00,,,0.00,,2013-07-01 21:11:00,
2013-07-01 16:24:00,80.0,61.0,30.12,North,2,0.0,5.0,52,0.00,,,0.00,,2013-07-01 21:24:00,
2013-07-01 16:34:00,80.0,59.0,30.12,NNE,18,0.0,8.0,48,0.00,,,0.00,,2013-07-01 21:34:00,
2013-07-01 16:43:00,80.0,60.0,30.11,North,11,0.0,5.0,51,0.00,,,0.00,,2013-07-01 21:43:00,
2013-07-01 16:53:00,80.0,59.0,30.11,NE,54,0.0,7.0,49,0.00,,,0.00,,2013-07-01 21:53:00,
2013-07-01 17:01:00,80.0,58.0,30.11,East,80,2.0,7.0,47,0.00,,,0.00,,2013-07-01 22:01:00,
2013-07-01 17:11:00,80.0,57.0,30.12,NNE,28,7.0,11.0,46,0.00,,,0.00,,2013-07-01 22:11:00,
2013-07-01 17:24:00,80.0,58.0,30.11,ESE,104,0.0,9.0,47,0.00,,,0.00,,2013-07-01 22:24:00,
2013-07-01 17:33:00,80.0,58.0,30.11,ESE,104,0.0,9.0,47,0.00,,,0.00,,2013-07-01 22:33:00,
2013-07-01 17:43:00,80.0,59.0,30.11,NNE,15,0.0,6.0,48,0.00,,,0.00,,2013-07-01 22:43:00,
2013-07-01 17:53:00,80.0,59.0,30.11,East,85,0.0,9.0,48,0.00,,,0.00,,2013-07-01 22:53:00,
2013-07-01 18:01:00,80.0,60.0,30.11,SE,132,5.0,8.0,50,0.00,,,0.00,,2013-07-01 23:01:00,
2013-07-01 18:11:00,80.0,60.0,30.11,ESE,115,3.0,10.0,50,0.00,,,0.00,,2013-07-01 23:11:00,
2013-07-01 18:22:00,80.0,60.0,30.11,SSE,161,4.0,6.0,50,0.00,,,0.00,,2013-07-01 23:22:00,
2013-07-01 18:33:00,79.0,58.0,30.11,ENE,60,0.0,3.0,49,0.00,,,0.00,,2013-07-01 23:33:00,
2013-07-01 18:44:00,79.0,58.0,30.11,ESE,108,2.0,8.0,48,0.00,,,0.00,,2013-07-01 23:44:00,
2013-07-01 18:53:00,79.0,58.0,30.11,ESE,108,2.0,8.0,48,0.00,,,0.00,,2013-07-01 23:53:00,
2013-07-01 19:01:00,79.0,58.0,30.11,ESE,112,3.0,5.0,48,0.00,,,0.00,,2013-07-02 00:01:00,
2013-07-01 19:12:00,79.0,57.0,30.11,East,94,0.0,5.0,47,0.00,,,0.00,,2013-07-02 00:12:00,
2013-07-01 19:22:00,79.0,57.0,30.11,ESE,109,0.0,2.0,47,0.00,,,0.00,,2013-07-02 00:22:00,
2013-07-01 19:34:00,79.0,58.0,30.11,ESE,108,4.0,7.0,49,0.00,,,0.00,,2013-07-02 00:34:00,
2013-07-01 19:43:00,79.0,58.0,30.11,South,178,4.0,7.0,49,0.00,,,0.00,,2013-07-02 00:43:00,
2013-07-01 19:53:00,78.0,58.0,30.11,NE,56,0.0,7.0,50,0.00,,,0.00,,2013-07-02 00:53:00,
2013-07-01 20:01:00,78.0,58.0,30.11,East,80,0.0,7.0,50,0.00,,,0.00,,2013-07-02 01:01:00,
2013-07-01 20:11:00,78.0,58.0,30.11,ESE,116,0.0,5.0,51,0.00,,,0.00,,2013-07-02 01:11:00,
2013-07-01 20:22:00,77.0,58.0,30.11,ESE,123,0.0,5.0,52,0.00,,,0.00,,2013-07-02 01:22:00,
2013-07-01 20:33:00,77.0,59.0,30.11,NE,42,0.0,0.0,53,0.00,,,0.00,,2013-07-02 01:33:00,
2013-07-01 20:43:00,77.0,59.0,30.11,NNE,16,0.0,2.0,53,0.00,,,0.00,,2013-07-02 01:43:00,
2013-07-01 20:53:00,76.0,58.0,30.11,East,95,0.0,0.0,54,0.00,,,0.00,,2013-07-02 01:53:00,
2013-07-01 21:02:00,76.0,59.0,30.11,East,95,0.0,0.0,55,0.00,,,0.00,,2013-07-02 02:02:00,
2013-07-01 21:11:00,75.0,58.0,30.11,East,95,0.0,0.0,56,0.00,,,0.00,,2013-07-02 02:11:00,
2013-07-01 21:22:00,75.0,58.0,30.11,East,95,0.0,0.0,56,0.00,,,0.00,,2013-07-02 02:22:00,
2013-07-01 21:33:00,74.0,58.0,30.11,East,95,0.0,0.0,58,0.00,,,0.00,,2013-07-02 02:33:00,
2013-07-01 21:43:00,73.0,58.0,30.12,East,95,0.0,0.0,60,0.00,,,0.00,,2013-07-02 02:43:00,
2013-07-01 21:53:00,73.0,58.0,30.12,East,95,0.0,0.0,60,0.00,,,0.00,,2013-07-02 02:53:00,
2013-07-01 22:01:00,73.0,59.0,30.12,East,95,0.0,0.0,61,0.00,,,0.00,,2013-07-02 03:01:00,
2013-07-01 22:12:00,72.0,59.0,30.12,East,95,0.0,0.0,63,0.00,,,0.00,,2013-07-02 03:12:00,
2013-07-01 22:24:00,72.0,59.0,30.12,East,95,0.0,0.0,63,0.00,,,0.00,,2013-07-02 03:24:00,
2013-07-01 22:32:00,71.0,58.0,30.13,East,95,0.0,0.0,64,0.00,,,0.00,,2013-07-02 03:32:00,
2013-07-01 22:43:00,71.0,58.0,30.13,East,95,0.0,0.0,64,0.00,,,0.00,,2013-07-02 03:43:00,
2013-07-01 22:53:00,71.0,59.0,30.13,East,95,0.0,0.0,65,0.00,,,0.00,,2013-07-02 03:53:00,
2013-07-01 23:02:00,70.0,58.0,30.13,East,95,0.0,0.0,66,0.00,,,0.00,,2013-07-02 04:02:00,
2013-07-01 23:11:00,70.0,59.0,30.13,East,95,0.0,0.0,67,0.00,,,0.00,,2013-07-02 04:11:00,
2013-07-01 23:22:00,69.0,58.0,30.13,East,95,0.0,0.0,67,0.00,,,0.00,,2013-07-02 04:22:00,
2013-07-01 23:32:00,69.0,58.0,30.13,East,95,0.0,0.0,67,0.00,,,0.00,,2013-07-02 04:32:00,
2013-07-01 23:42:00,69.0,58.0,30.13,East,95,0.0,0.0,68,0.00,,,0.00,,2013-07-02 04:42:00,
2013-07-01 23:53:00,69.0,58.0,30.13,East,95,0.0,0.0,69,0.00,,,0.00,,2013-07-02 04:53:00,